Location: McFarlands Corners
(41.4117°N, 81.3382°W)
Time: 08:12:41
(UTC+00:00)

Vanguard 1 Rocket - Pass Details

Date: 18 February 2026
Orbit: 653 x 4214 km, 34.3° (Epoch: 12 March)

Event Time Altitude Azimuth Distance (km) Brightness Sun altitude
Rises 18:47:33 0° 239° (WSW) 4,146 11.4 34.9°
Reaches altitude 10° 18:49:52 10° 234° (SW) 3,471 11.3 34.7°
Maximum altitude 18:58:50 55° 159° (SSE) 2,444 10.6 34.1°
Drops below altitude 10° 19:16:15 10° 89° (E) 6,419 11.5 32.6°
Sets 19:22:24 0° 86° (E) 7,883 11.9 32.1°
